Brownwood, TX (76801)

2:14 PM CDT on August 29, 2015 (GMT -0500)
Early | | Change Station
CLOSE
Current Station
Personal Weather Station
Location: Early, TX
Elevation: 1407 ft
Nearby Weather Stations

Elev 1407 ft 31.74 °N, 98.94 °W | Updated 21 seconds ago

Partly Cloudy
Partly Cloudy
88.2 °F
Feels Like 87 °F
N
3.7
Wind Variable Wind from West

Today
High -- | Low -- °F
--% Chance of Precip.
Yesterday
High -- | Low -- °F
Precip. -- in
7:09 AM 8:03 PM
Full, 100% visible
Pressure 30.06 in
Visibility 10.0 miles
Clouds Clear
Heat Index 87 °F
Dew Point 58 °F
Humidity 36%
Rainfall 0.00 in
Snow Depth Not available.
UV 11 out of 12
Pollen 8.20 out of 12
Air Quality Not available.
Flu Activity Not available.
METAR KBWD 291855Z AUTO 23008KT 10SM CLR 30/16 A3006 RMK AO2
Pressure 30.06 in
Visibility 10.0 miles
Clouds Clear
Heat Index 87 °F
Dew Point 58 °F
Humidity 36%
Rainfall 0.00 in
Snow Depth Not available.
UV 11 out of 12
Pollen 8.20 out of 12
Air Quality Not available.
Flu Activity Not available.
METAR KBWD 291855Z AUTO 23008KT 10SM CLR 30/16 A3006 RMK AO2

10-Day Weather Forecast

×

Almanac

Astronomy

Aug. 29, 2015 Rise Set
Actual Time
Civil Twilight
Nautical Twilight
Astronomical Twilight
Moon
Length of Visible Light
Length of Day
Tomorrow will be .
, % of the Moon is Illuminated

Today's Extremes

State Highs State Lows

Community

WunderPhotos

Upload Photos

1,850,778 photos uploaded!

WunderBlogs® & News

Nearby

Air Quality

  Air Quality AQ Index Pollutant
Not available.

Snow Depth

Station Depth Elevation

Earthquake Activity

City Distance Mag. Time & Date
Minimum magnitude displayed is 2.5.

Coastal Water Temperatures

Place Temperature

Stations

Nearby Weather Stations

Station Location Temp. Windchill Dew Point Humidity Wind Precip. Elev Updated Type